Overview Statistics Trail Chart Weather Telemetry Raw packets
 

This is the latest recevied weather packets stored in our database for station/object EA2FBA-10. If no packets are shown the sender has not sent any weather packets the latest 10 day(s).

<< 1 2 3 4 >>
Time Temp. Humidity Pressure Rain* Wind** Luminosity Snow
1788626490 28.33° C 52% 958.2 hPa - - - -
1788625601 28.33° C 51% 958 hPa - - - -
1788625590 28.33° C 51% 958 hPa - - - -
1788624690 28.33° C 50% 958.1 hPa - - - -
1788623790 28.89° C 49% 957.9 hPa - - - -
1788622890 29.44° C 48% 957.9 hPa - - - -
1788622001 29.44° C 46% 958 hPa - - - -
1788621990 29.44° C 46% 958 hPa - - - -
1788621101 28.89° C 47% 958 hPa - - - -
1788621089 28.89° C 47% 958 hPa - - - -
1788620189 28.89° C 46% 958 hPa - - - -
1788619289 30° C 42% 958 hPa - - - -
1788618401 28.33° C 42% 958.1 hPa - - - -
1788618389 28.33° C 42% 958.1 hPa - - - -
1788617489 28.33° C 39% 958.2 hPa - - - -
1788616600 29.44° C 36% 958.5 hPa - - - -
1788616589 29.44° C 36% 958.5 hPa - - - -
1788615701 27.78° C 40% 958.7 hPa - - - -
1788615689 27.78° C 40% 958.7 hPa - - - -
1788614801 28.89° C 38% 959 hPa - - - -
1788614789 28.89° C 38% 959 hPa - - - -
1788613889 28.33° C 39% 959.3 hPa - - - -
1788612989 26.67° C 43% 959.4 hPa - - - -
1788612088 26.11° C 46% 959.7 hPa - - - -
1788611198 28.89° C 40% 959.8 hPa - - - -

* Rain since midnight (hover to see other rain measurements)
** Current wind speed in m/s (hover to see current wind gust speed)